TimeMDT,TemperatureF,Dew PointF,Humidity,Sea Level PressureIn,VisibilityMPH,Wind Direction,Wind SpeedMPH,Gust SpeedMPH,PrecipitationIn,Events,Conditions,WindDirDegrees,DateUTC
12:52 AM,54.0,46.9,77,30.06,10.0,SSE,8.1,-,N/A,,Clear,150,2013-07-03 06:52:00
1:52 AM,52.0,46.9,83,30.05,10.0,SSE,6.9,-,N/A,,Clear,150,2013-07-03 07:52:00
2:52 AM,50.0,46.0,86,30.04,10.0,SSE,6.9,-,N/A,,Clear,160,2013-07-03 08:52:00
3:52 AM,48.9,46.0,90,30.03,10.0,ESE,6.9,-,N/A,,Clear,120,2013-07-03 09:52:00
4:52 AM,48.9,46.9,93,30.02,10.0,ESE,8.1,-,N/A,,Scattered Clouds,120,2013-07-03 10:52:00
5:52 AM,48.0,46.0,93,30.06,8.0,ESE,6.9,-,N/A,,Clear,110,2013-07-03 11:52:00
6:52 AM,51.1,48.0,89,30.05,10.0,SE,3.5,-,N/A,,Clear,140,2013-07-03 12:52:00
7:52 AM,55.0,48.0,77,30.07,10.0,Variable,4.6,-,N/A,,Clear,0,2013-07-03 13:52:00
8:52 AM,57.0,50.0,77,30.06,10.0,Variable,3.5,-,N/A,,Clear,0,2013-07-03 14:52:00
9:52 AM,62.1,48.9,62,30.04,10.0,South,3.5,-,N/A,,Clear,170,2013-07-03 15:52:00
10:52 AM,66.0,46.0,48,30.01,10.0,Variable,3.5,-,N/A,,Clear,0,2013-07-03 16:52:00
11:52 AM,72.0,45.0,38,29.99,10.0,Variable,4.6,-,N/A,,Clear,0,2013-07-03 17:52:00
12:52 PM,72.0,39.9,31,29.98,10.0,Calm,Calm,-,N/A,,Clear,0,2013-07-03 18:52:00
1:52 PM,77.0,37.0,24,29.93,10.0,Variable,5.8,18.4,N/A,,Clear,0,2013-07-03 19:52:00
2:52 PM,78.1,35.1,21,29.90,10.0,Variable,6.9,-,N/A,,Clear,0,2013-07-03 20:52:00
3:52 PM,73.0,33.1,23,29.93,10.0,Variable,6.9,29.9,N/A,,Overcast,0,2013-07-03 21:52:00
4:37 PM,71.6,35.6,27,30.21,10.0,ENE,17.3,26.5,0.00,,Mostly Cloudy,60,2013-07-03 22:37:00
4:52 PM,69.1,39.9,35,29.94,10.0,East,10.4,24.2,0.00,,Mostly Cloudy,90,2013-07-03 22:52:00
5:52 PM,72.0,41.0,33,29.94,10.0,ESE,15.0,-,N/A,,Partly Cloudy,110,2013-07-03 23:52:00
6:52 PM,68.0,39.9,36,29.94,10.0,SSE,11.5,-,N/A,,Scattered Clouds,150,2013-07-04 00:52:00
7:52 PM,66.0,43.0,43,29.94,10.0,South,3.5,-,N/A,,Clear,180,2013-07-04 01:52:00
8:52 PM,63.0,45.0,52,29.96,10.0,South,4.6,-,N/A,,Overcast,190,2013-07-04 02:52:00
9:52 PM,63.0,41.0,45,29.96,10.0,ENE,5.8,-,N/A,,Clear,60,2013-07-04 03:52:00
10:52 PM,62.1,41.0,46,29.94,10.0,NNE,6.9,-,N/A,,Clear,20,2013-07-04 04:52:00
11:52 PM,61.0,42.1,50,29.92,10.0,NW,6.9,-,N/A,,Clear,310,2013-07-04 05:52:00